FW3806 Weather Reports


Display with metric or nautical units.
time (UTC)temp
F
wind
direction
speed
MPH
gust
MPH
rain 1hr
in
rain 24hr
in
rain mn
in
humidity
%
barometer
mb
20260901054555 86 155 2.0 10.0 0.00 0.00 0.00 32 1006.5
20260901053054 87 129 7.0 13.0 0.00 0.00 0.00 31 1006.4
20260901051558 87 145 6.0 0.0 0.00 0.00 0.00 31 1006.4
20260901050053 87 112 6.0 14.0 0.00 0.00 0.00 32 1006.4
20260901044652 88 122 8.0 13.0 0.00 0.00 0.00 32 1006.3
20260901043052 88 120 6.0 14.0 0.00 0.00 0.00 33 1006.3
20260901041551 88 127 7.0 16.0 0.00 0.00 0.00 34 1006.1
20260901040108 89 85 9.0 14.0 0.00 0.00 0.00 27 1005.9
20260901034549 90 162 2.0 5.0 0.00 0.00 0.00 17 1005.7
20260901033050 91 184 4.0 12.0 0.00 0.00 0.00 17 1005.5
20260901031547 91 232 4.0 8.0 0.00 0.00 0.00 16 1005.5
20260901030046 91 233 1.0 9.0 0.00 0.00 0.00 16 1005.2
20260901024546 91 204 2.0 8.0 0.00 0.00 0.00 16 1005.1
20260901023045 91 231 4.0 9.0 0.00 0.00 0.00 15 1005.1
20260901021545 92 210 0.0 8.0 0.00 0.00 0.00 15 1005.0
20260901020045 93 174 2.0 9.0 0.00 0.00 0.00 15 1004.8
20260901014544 94 189 6.0 11.0 0.00 0.00 0.00 14 1004.6
20260901013103 95 221 7.0 16.0 0.00 0.00 0.00 14 1004.7
20260901011542 95 241 8.0 15.0 0.00 0.00 0.00 13 1004.7
20260901010041 96 224 6.0 12.0 0.00 0.00 0.00 13 1004.7
20260901004540 96 201 6.0 16.0 0.00 0.00 0.00 13 1004.6
20260901003039 96 223 7.0 15.0 0.00 0.00 0.00 13 1004.7
20260901001537 97 207 10.0 17.0 0.00 0.00 0.00 14 1004.6
20260901000037 97 144 8.0 20.0 0.00 0.00 0.00 14 1004.6
20260831234543 98 170 4.0 14.0 0.00 0.00 0.00 14 1004.5
20260831233036 98 155 6.0 14.0 0.00 0.00 0.00 13 1004.5
20260831231533 98 259 3.0 15.0 0.00 0.00 0.00 14 1004.7
20260831230032 98 187 3.0 16.0 0.00 0.00 0.00 14 1004.7
20260831224530 98 164 7.0 18.0 0.00 0.00 0.00 14 1005.0
20260831223032 98 155 6.0 16.0 0.00 0.00 0.00 15 1005.1
20260831221526 98 162 9.0 20.0 0.00 0.00 0.00 14 1005.4
20260831220024 97 172 5.0 13.0 0.00 0.00 0.00 14 1005.6
20260831214525 97 129 5.0 12.0 0.00 0.00 0.00 15 1006.0
20260831213024 96 88 6.0 23.0 0.00 0.00 0.00 16 1006.1
20260831211519 95 116 10.0 17.0 0.00 0.00 0.00 17 1006.3
20260831210018 96 167 9.0 19.0 0.00 0.00 0.00 17 1006.6
20260831204518 96 161 7.0 16.0 0.00 0.00 0.00 17 1006.8
20260831203014 95 115 9.0 20.0 0.00 0.00 0.00 17 1007.0
20260831201516 95 73 8.0 18.0 0.00 0.00 0.00 21 1007.1
20260831200013 94 198 11.0 19.0 0.00 0.00 0.00 20 1007.3
20260831194512 93 128 13.0 22.0 0.00 0.00 0.00 21 1007.5
20260831193008 93 135 11.0 17.0 0.00 0.00 0.00 22 1007.6
20260831191505 92 127 8.0 18.0 0.00 0.00 0.00 22 1007.9
20260831190013 92 123 7.0 16.0 0.00 0.00 0.00 23 1008.2
20260831184503 92 193 9.0 15.0 0.00 0.00 0.00 22 1008.2
20260831183101 91 108 12.0 17.0 0.00 0.00 0.00 23 1008.3
20260831181559 91 94 9.0 18.0 0.00 0.00 0.00 23 1008.3
20260831174556 90 152 4.0 16.0 0.00 0.00 0.00 26 1008.6
20260831173102 90 129 5.0 11.0 0.00 0.00 0.00 23 1008.7
20260831171554 89 149 7.0 13.0 0.00 0.00 0.00 24 1008.9
20260831170050 89 120 7.0 11.0 0.00 0.00 0.00 24 1008.8
20260831164548 88 189 4.0 9.0 0.00 0.00 0.00 24 1008.8
20260831163044 87 138 5.0 9.0 0.00 0.00 0.00 25 1008.7
20260831161541 86 138 5.0 12.0 0.00 0.00 0.00 26 1008.8
20260831160037 85 74 6.0 12.0 0.00 0.00 0.00 26 1008.8
20260831154535 84 122 5.0 10.0 0.00 0.00 0.00 27 1008.9
20260831153031 84 95 4.0 9.0 0.00 0.00 0.00 28 1008.7
20260831151528 83 92 4.0 9.0 0.00 0.00 0.00 29 1008.6
20260831150026 82 92 5.0 9.0 0.00 0.00 0.00 30 1008.3
20260831144522 82 72 2.0 7.0 0.00 0.00 0.00 32 1008.2
20260831143021 81 119 0.0 3.0 0.00 0.00 0.00 32 1008.1
20260831141517 80 107 0.0 1.0 0.00 0.00 0.00 33 1007.9
20260831140031 77 107 0.0 0.0 0.00 0.00 0.00 34 1007.6
20260831134515 77 107 0.0 0.0 0.00 0.00 0.00 34 1007.3
20260831133013 75 107 0.0 0.0 0.00 0.00 0.00 35 1007.0
20260831131513 74 107 0.0 0.0 0.00 0.00 0.00 35 1007.1
20260831130013 74 107 0.0 0.0 0.00 0.00 0.00 35 1007.0
20260831124511 74 357 0.0 0.0 0.00 0.00 0.00 34 1006.8
20260831123009 74 357 0.0 0.0 0.00 0.00 0.00 34 1006.8
20260831121509 74 357 0.0 0.0 0.00 0.00 0.00 34 1006.7
20260831120014 73 357 0.0 0.0 0.00 0.00 0.00 34 1006.6
20260831114507 73 357 0.0 2.0 0.00 0.00 0.00 33 1006.5
20260831113005 74 6 0.0 2.0 0.00 0.00 0.00 35 1006.5
20260831111503 75 115 0.0 0.0 0.00 0.00 0.00 37 1006.4
20260831110005 74 108 0.0 0.0 0.00 0.00 0.00 38 1006.3
20260831104605 75 285 0.0 0.0 0.00 0.00 0.00 37 1006.1
20260831103058 75 285 0.0 0.0 0.00 0.00 0.00 35 1006.1
20260831101602 76 285 0.0 0.0 0.00 0.00 0.00 33 1006.0
20260831094553 76 302 0.0 2.0 0.00 0.00 0.00 30 1006.0
20260831093055 77 283 0.0 0.0 0.00 0.00 0.00 29 1006.1
20260831091548 78 289 1.0 4.0 0.00 0.00 0.00 28 1005.8
20260831090057 78 297 0.0 2.0 0.00 0.00 0.00 28 1005.7
20260831084556 78 302 3.0 5.0 0.00 0.00 0.00 28 1005.7
20260831083048 78 309 0.0 4.0 0.00 0.00 0.00 28 1005.7
20260831081546 78 297 0.0 3.0 0.00 0.00 0.00 28 1005.8
20260831080045 77 300 1.0 4.0 0.00 0.00 0.00 29 1005.7
20260831074543 77 301 1.0 6.0 0.00 0.00 0.00 27 1005.8
20260831073039 78 337 2.0 4.0 0.00 0.00 0.00 26 1005.8
20260831071536 80 4 0.0 2.0 0.00 0.00 0.00 27 1005.8
20260831070043 80 295 0.0 0.0 0.00 0.00 0.00 27 1005.6
20260831064532 81 295 1.0 2.0 0.00 0.00 0.00 26 1005.6
20260831063032 81 286 0.0 3.0 0.00 0.00 0.00 25 1005.7
20260831061531 81 295 0.0 3.0 0.00 0.00 0.00 23 1005.3
20260831060031 81 299 0.0 4.0 0.00 0.00 0.00 24 1005.3